Overview Statistics Trail Chart Weather Telemetry Raw packets
 

This is the latest recevied weather packets stored in our database for station/object N7WSS. If no packets are shown the sender has not sent any weather packets the latest 10 day(s).

<< 102 103 104 105 106 107 108 >>
Time Temp. Humidity Pressure Rain* Wind** Luminosity Snow
1787862211 40° C 28% 1013.3 hPa 0 mm - - -
1787861907 39.44° C 28% 1013.2 hPa 0 mm - - -
1787861606 39.44° C 29% 1013.6 hPa 0 mm - - -
1787861305 39.44° C 29% 1013.6 hPa 0 mm - - -
1787861000 39.44° C 29% 1013.7 hPa 0 mm - - -
1787860699 40° C 29% 1013.9 hPa 0 mm - - -
1787860395 39.44° C 29% 1014 hPa 0 mm - - -
1787860095 38.89° C 29% 1014.1 hPa 0 mm - - -
1787859791 38.89° C 30% 1014.2 hPa 0 mm - - -
1787859490 38.89° C 30% 1014.1 hPa 0 mm - - -
1787859190 38.89° C 30% 1014.2 hPa 0 mm - - -
1787858887 38.89° C 30% 1014.1 hPa 0 mm - - -
1787858583 37.78° C 31% 1014.4 hPa 0 mm - - -
1787858282 37.78° C 32% 1014.5 hPa 0 mm - - -
1787857978 37.22° C 32% 1014.5 hPa 0 mm - - -
1787857673 37.78° C 32% 1014.5 hPa 0 mm - - -
1787857369 37.78° C 31% 1014.5 hPa 0 mm - - -
1787857067 38.33° C 31% 1014.7 hPa 0 mm - - -
1787856762 37.78° C 31% 1014.8 hPa 0 mm - - -
1787856462 38.33° C 31% 1014.9 hPa 0 mm - - -
1787856158 37.78° C 32% 1014.9 hPa 0 mm - - -
1787855853 37.22° C 33% 1015 hPa 0 mm - - -
1787855553 37.22° C 34% 1015.1 hPa 0 mm - - -
1787855248 37.22° C 34% 1015 hPa 0 mm - - -
1787854944 37.22° C 34% 1015.3 hPa 0 mm - - -

* Rain latest hour (hover to see other rain measurements)
** Current wind speed in m/s (hover to see current wind gust speed)